AirNav   ATP
 
 445 users online  

T69 Alfred C 'Bubba' Thomas Airport
Sinton, Texas, USA

GOING TO SINTON?


FAA INFORMATION EFFECTIVE 04 JANUARY 2018

Location

FAA Identifier: T69
Lat/Long: 28-02-18.8407N / 097-32-33.0045W
28-02.314012N / 097-32.550075W
28.0385669 / -97.5425013
(estimated)
Elevation: 47.9 ft. / 14.6 m (surveyed)
Variation: 06E (2000)
From city: 2 miles W of SINTON, TX
Time zone: UTC -6 (UTC -5 during Daylight Saving Time)
Zip code: 78387

Airport Operations

Airport use: Open to the public
Activation date: 04/1945
Control tower: no
ARTCC: HOUSTON CENTER
FSS: SAN ANGELO FLIGHT SERVICE STATION
NOTAMs facility: SJT (NOTAM-D service available)
Attendance: UNATNDD
Wind indicator: lighted
Segmented circle: yes
Lights: ACTVT MIRL RY 14/32; REIL RYS 14 & 32 - CTAF.
Beacon: white-green (lighted land airport)
Operates sunset to sunrise.

Airport Communications

CTAF/UNICOM: 122.8
WX AWOS-1: 118.25 (361-364-1844)
CORPUS APPROACH: 120.9
CORPUS DEPARTURE: 120.9
WX ASOS at CRP (16 nm S): PHONE 361-289-0191
WX AWOS-3 at RBO (17 nm SW): 118.175 (361-767-1982)
WX AWOS-3 at TFP (19 nm SE): 118.775 (361-758-8961)

Nearby radio navigation aids

VOR radial/distance  VOR name  Freq  Var
CRPr318/9.6CORPUS CHRISTI VORTAC115.5009E
NGPr322/24.9TRUAX VORTAC114.0006E
ALIr049/(31.1)ALICE VOR114.5006E

 
NDB name  Hdg/Dist  Freq  Var  ID
MELLON RANCH225/23.037506EMNO -- -. ---

Airport Services

Fuel available: 100LL JET-A
FOR FUEL OR SVC CALL 361-364-3200. AFTER HOURS CALL 361-548-1483 OR 361-364-2251.
Parking: tiedowns
Airframe service: MAJOR
Powerplant service: MAJOR
Bottled oxygen: NONE
Bulk oxygen: NONE

Runway Information

Runway 14/32

Dimensions: 4323 x 55 ft. / 1318 x 17 m
Surface: asphalt, in fair condition
Weight bearing capacity: 
Single wheel: 8.0
Runway edge lights: medium intensity
Runway edge markings: MARKINGS FADED.
RUNWAY 14  RUNWAY 32
Latitude: 28-02.649680N28-02.059340N
Longitude: 097-32.772160W097-32.320793W
Elevation: 46.2 ft.46.5 ft.
Gradient: 0.1%0.1%
Traffic pattern: leftleft
Runway heading: 140 magnetic, 146 true320 magnetic, 326 true
Displaced threshold: 250 ft.400 ft.
Markings: nonprecision, in poor conditionnonprecision, in poor condition
Visual slope indicator: 2-light PAPI on left (3.00 degrees glide path)
RY 14 PAPI OTS INDEF.
2-light PAPI on left (3.00 degrees glide path)
RY 32 PAPI OTS INDEF.
Runway end identifier lights: yes
REIL OTS INDEFLY.
yes
Touchdown point: yes, no lightsyes, no lights
Obstructions: 20 ft. tree, 213 ft. from runway, 140 ft. left of centerline
+4 FT FENCE FM THLD TO 50 FT FM THLD 200 FT L AND 244 FT R; 15 FT ROAD 170 FT FM THLD AT 230 FT LEFT; +8 FT SCATTERED BRUSH ACROSS APPROACH 25 FT FM THLD.
15 ft. road, 200 ft. from runway, 180 ft. right of centerline
+3 FT FENCE AND +15 FT ROAD WITHIN 50 FT OF RY END AND ACROSS APCH.

Runway 3/21

Dimensions: 3100 x 50 ft. / 945 x 15 m
Surface: turf, in poor condition
RUNWAY NOT MAINTAINED, UNSUITABLE FOR USE.
RUNWAY 3  RUNWAY 21
Latitude: 28-02.064192N28-02.450883N
Longitude: 097-32.743833W097-32.366350W
Elevation: 47.0 ft.47.0 ft.
Traffic pattern: leftleft
Runway heading: 035 magnetic, 041 true215 magnetic, 221 true
Touchdown point: yes, no lightsyes, no lights
Obstructions: 15 ft. road, 78 ft. from runway, 5:1 slope to clear35 ft. pline, lighted, 400 ft. from runway, 11:1 slope to clear

Airport Ownership and Management from official FAA records

Ownership: Publicly-owned
Owner: SAN PATRICIO COUNTY
SAN PATRICIO COUNTY COURTHOUSE
SINTON, TX 78387
Phone 361-364-3200
Manager: PAUL LEHNERT
3141 FM 3512
ARANSAS PASS, TX 78336
Phone 361-758-5018
361-222-8417.

Airport Operational Statistics

Aircraft based on the field: 39
Single engine airplanes: 28
Multi engine airplanes: 11
    
Aircraft operations: avg 57/week *
67% transient general aviation
33% local general aviation
* for 12-month period ending 15 March 2017

Additional Remarks

WINDSOCK LGTS OTS INDEFLY.
FOR CD CTC CRP APCH AT 361-299-4230.
THE DISPLACED THLD LIGHTS FOR RWYS 14 AND 32 HAVE NONSTD LENSES.

Instrument Procedures

NOTE: All procedures below are presented as PDF files. If you need a reader for these files, you should download the free Adobe Reader.

NOT FOR NAVIGATION. Please procure official charts for flight.
FAA instrument procedures published for use between 4 January 2018 at 0901Z and 1 February 2018 at 0900Z.

 
IAPs - Instrument Approach Procedures
GPS RWY 14   download (141KB)
GPS RWY 32   download (145KB)
VOR/DME RWY 14   download (165KB)
VOR RWY 32   download (216KB)
NOTE: Special Take-Off Minimums/Departure Procedures apply   download

Other nearby airports with instrument procedures:

KCRP - Corpus Christi International Airport (16 nm S)
KRBO - Nueces County Airport (17 nm SW)
KTFP - McCampbell-Porter Airport (19 nm SE)
TX2 - Chase Field Industrial Airport (20 nm N)
KBEA - Beeville Municipal Airport (24 nm NW)
 
Loc | Ops | Rwys | IFR | FBO | Links
Com | Nav | Svcs | Stats | Notes


 
Area around T69 (Alfred C 'Bubba' Thomas Airport)
 
Road maps at: MapQuest Bing Google
 
Aerial photo
WARNING: Photo may not be current or correct
Aerial photo of T69 (Alfred C 'Bubba' Thomas Airport)
Do you have a better or more recent aerial photo of Alfred C 'Bubba' Thomas Airport that you would like to share? If so, please send us your photo.

 
Sectional chart

 
Airport distance calculator
Flying to Alfred C 'Bubba' Thomas Airport? Find the distance to fly.

From to T69

Sunrise and sunset
Times for 23-Jan-2018
 Local
(UTC-6)
 Zulu
(UTC)
Morning civil twilight06:5712:57
Sunrise07:2213:22
Sunset18:0200:02
Evening civil twilight18:2700:27

Current date and time
Zulu (UTC)  23-Jan-2018 06:31:13
Local (UTC-6)  23-Jan-2018 00:31:13
 
METAR
KCRP 
16nm S 
230551Z 03005KT 10SM FEW180 SCT250 10/M01 A3018 RMK AO2 SLP220 T01001006 10172 20100 402280100 51013
KRBO 
17nm SW 
230615Z AUTO 36003KT 10SM CLR 07/M02 A3019 RMK AO2 T00711016
KTFP 
19nm SE 
230615Z AUTO 03003KT 10SM CLR 11/02 A3018 RMK AO2 T01050015 PNO
KBEA 
23nm NW 
230615Z AUTO 00000KT 10SM CLR 09/M03 A3019 RMK AO2 T00931035
KNGP 
26nm SE 
230556Z AUTO 03005KT 10SM FEW180 SCT250 12/06 A3018 RMK AO2 SLP218 T01170056 10161 20117 402330117 51012 PWINO
KRKP 
26nm E 
230553Z AUTO 00000KT 10SM CLR 07/M02 A3018 RMK AO2 SLP222 T00671017 10161 20067 402170067 51012
KNOG 
28nm W 
230556Z AUTO 36006KT 10SM CLR 07/M01 A3019 RMK AO2 SLP205 T00671006 10178 20061 402170061 51012 $
KALI 
31nm SW 
230553Z AUTO 35004KT 10SM CLR 07/M01 A3019 RMK AO2 SLP221 T00721011 10183 20050 402280050 51014
TAF
KCRP 
16nm S 
230524Z 2306/2406 04004KT P6SM BKN250 FM231900 08011KT P6SM SCT250
NOTAMs
Click for the latest NOTAMs
NOTAMs are issued by the DoD/FAA and will open in a separate window not controlled by AirNav.

 

 
 

FBO, Fuel Providers, and Aircraft Ground Support

  
 Business Name 
 
 Contact 
 
 Services / Description 
 
Fuel Prices
 
Comments
  
Sky Park Aviation 361-364-3200
no information available

If you are affiliated with Sky Park Aviation and would like to show here your services, contact info, web link, logo, and more, click here
100LL Jet A
FS $4.55 $3.55 
 Updated 09-Jan-2018
 
   write
FS=Full service
Update Fuel Prices
 

Aviation Businesses, Services, and Facilities

  
 Business Name 
 
 Contact 
 
 Services / Description 
 
Distance
 
Comments
  
Straight Flight Aviation 361-318-9783
[web site]
[email]
Flight training, Aircraft rental, Aerial tours / aerial sightseeing, Aircraft cleaning / washing / detailing, Pilot supplies, Pilots lounge / snooze room, Internet access, ...

More info about Straight Flight Aviation
on airport  
   write
 

Would you like to see your business listed on this page?

 If your business provides an interesting product or service to pilots, flight crews, aircraft, or users of the Alfred C 'Bubba' Thomas Airport, you should consider listing it here.  To start the listing process, click on the button below
 
Add a business
 

Other Pages about Alfred C 'Bubba' Thomas Airport

Update a link
 
Copyright © AirNav, LLC. All rights reserved. Privacy Policy  Contact